LEO VANTAGE 1 (43113 NORAD) Tracking and Keplerian Element Data

This shows tracking and keplerian element data for the satellite.

Feedback or suggestion? Click here.




ElementValue
Catalog43113
NameLEO VANTAGE 1
Epoch Orbit4227
Epoch Day315.93586551
Epoch Year2018
RAAN14.9681
Inclination99.4638
Eccentricity0.0006014
Argument of Perigee133.0472
Mean Anonmoly227.1178
Mean Motion13.69846793
Decay Rate-5E-07
L11 43113U 18004C 18315.93586551 -.00000050 00000-0 -73247-5 0 9990
L22 43113 99.4638 14.9681 0006014 133.0472 227.1178 13.69846793 42272

Live tracking and technical data element details for LEO VANTAGE 1 (NORAD 43113). LEO VANTAGE 1 can be tracked NOW for your location showing map with azimuth and elevation plus other details from your city location.

Track the satellite on the map from your city or location and see movement details for azimuth, elevation, latitude, longitude, range, height, and movement on the map or in text.







IsCatalogInMostPopularTable: catalog: 43113, numindb: 122
Update: records affected: 1



GetName: 43113 LEO VANTAGE 1

Hit Count: updated at: Mon, 12 Nov 2018 17:31:26 GMT